THORAD AGENA D DEB, 4818

Orbit data source: Space-Track

THORAD AGENA D DEB, 4818 is space debris in SSO originally from a launch on Wed, 08 Apr 1970 UTC launched from the Air Force Western Test Range (AFWTR). Debris objects in space refer to the collection of defunct objects orbiting the Earth. Examples of debris include non-operational satellites, rocket bodies, and fragments generated from explosions, collisions, or faulty payload assembly.

Loading next visibility...
Identifier
4818, 1970-025DZ
Orbit
SSO
Country
Flag of USUS
Related business
Manufacturer
Unknown
Mission
Spacecraft
Bus & Motor
Unknown
Mass
Unknown
Launch date (UTC)
1970-04-08 (56 years ago)
Launch vehicle
Unknown
Launch site
Air Force Western Test Range (AFWTR)
Object type
Payload
Rocket body
Debris
Shape & HBR
Unknown shape, 0.1 m
Radar Cross Section
Medium (>0.1 m² and <1 m²)

Expand to show TLE details & history
Last TLE update: 10 hours ago

TLE from 10 hours ago
0 THORAD AGENA D DEB
1  4818U 70025DZ  26256.33477171  .00000308  00000-0  83260-3 0  9992
2  4818  99.8868 161.5826 0271490 353.7162 120.3540 13.10406523691365
Epoch: 2026-09-13T08:02Z
TLE epoch observation values (Epoch: 2026-09-13T08:02:04.275Z)
Latitude
61.73594°
Longitude
-112.44768°
Altitude
1,340.423 km
Speed
7.142 km/s
True Right ascension
00h 01m 36s
True Declination
61° 36' 11"
Sunlit
Object was in daylight at epoch
Visualization orbit readout
Latitude
Unknown
Longitude
Unknown
Altitude
Unknown
Speed
Unknown
Apparent Right ascension
Unknown
Apparent Declination
Unknown
Sunlit
N/A
Visualization observer readout
Local Sidereal Time
10:29:46
Azimuth
Unknown
Elevation
Unknown
Doppler factor
Unknown
Orbital elements
Apogee altitude
1,425.201 km
Perigee altitude
1,012.695 km
Semi-major axis
7,597.085 km
Eccentricity
0.02715
Inclination
99.8868°
RAAN
161.5826°
Arg. of periapsis
353.7162°
True anomaly
122.99236°
Mean anomaly
120.354°
Eccentric anomaly
121.67777°
Mean motion
3.27773 °/min
Orbital period
109.83 mins
BSTAR
0.0008326

Documentation

Showing up to 5 results
|